| time (UTC) | temp C | wind direction | speed KPH | gust KPH | rain 1hr cm | rain 24hr cm | rain mn cm | humidity % | barometer mb |
| 20260504175209 | 20 | 182 | 16.1 | 27.4 | 0.00 | 0.00 | 0.00 | 30 | 1011.4 |
| 20260504174709 | 20 | 159 | 9.7 | 27.4 | 0.00 | 0.00 | 0.00 | 30 | 1011.3 |
| 20260504174211 | 20 | 208 | 25.7 | 27.4 | 0.00 | 0.00 | 0.00 | 30 | 1011.4 |
| 20260504173211 | 19 | 200 | 14.5 | 22.5 | 0.00 | 0.00 | 0.00 | 31 | 1011.6 |
| 20260504172709 | 19 | 237 | 20.9 | 25.7 | 0.00 | 0.00 | 0.00 | 31 | 1011.5 |
| 20260504172209 | 19 | 188 | 16.1 | 30.6 | 0.00 | 0.00 | 0.00 | 31 | 1011.6 |
| 20260504171709 | 19 | 256 | 6.4 | 30.6 | 0.00 | 0.00 | 0.00 | 33 | 1011.6 |
| 20260504171209 | 18 | 234 | 16.1 | 24.1 | 0.00 | 0.00 | 0.00 | 31 | 1011.7 |
| 20260504170708 | 18 | 163 | 12.9 | 29.0 | 0.00 | 0.00 | 0.00 | 32 | 1011.7 |
| 20260504170211 | 19 | 202 | 16.1 | 29.0 | 0.00 | 0.00 | 0.00 | 31 | 1011.8 |
| 20260504160211 | 18 | 212 | 25.7 | 27.4 | 0.00 | 0.00 | 0.00 | 33 | 1012.4 |
| 20260504150709 | 17 | 224 | 22.5 | 24.1 | 0.00 | 0.00 | 0.00 | 36 | 1013.2 |
| 20260504150210 | 16 | 260 | 3.2 | 24.1 | 0.00 | 0.00 | 0.00 | 35 | 1013.3 |
| 20260504141208 | 15 | 246 | 11.3 | 24.1 | 0.00 | 0.00 | 0.00 | 41 | 1013.6 |
| 20260504140708 | 14 | 232 | 11.3 | 25.7 | 0.00 | 0.00 | 0.00 | 41 | 1013.5 |
| 20260504140208 | 14 | 223 | 8.0 | 25.7 | 0.00 | 0.00 | 0.00 | 41 | 1013.5 |
| 20260504130709 | 13 | 275 | 9.7 | 25.7 | 0.00 | 0.00 | 0.00 | 45 | 1014.2 |
| 20260504130210 | 13 | 228 | 8.0 | 33.8 | 0.00 | 0.00 | 0.00 | 45 | 1014.2 |
| 20260504110709 | 11 | 216 | 4.8 | 17.7 | 0.00 | 0.00 | 0.00 | 50 | 1014.3 |
| 20260504110210 | 10 | 254 | 6.4 | 24.1 | 0.00 | 0.00 | 0.00 | 49 | 1014.3 |
| 20260504100210 | 9 | 243 | 14.5 | 19.3 | 0.00 | 0.00 | 0.00 | 53 | 1013.8 |
| 20260504081708 | 9 | 246 | 4.8 | 14.5 | 0.00 | 0.00 | 0.00 | 46 | 1013.5 |
| 20260504081208 | 9 | 261 | 3.2 | 12.9 | 0.00 | 0.00 | 0.00 | 44 | 1013.4 |
| 20260504080708 | 9 | 226 | 4.8 | 17.7 | 0.00 | 0.00 | 0.00 | 44 | 1013.4 |
| 20260504080210 | 9 | 241 | 4.8 | 17.7 | 0.00 | 0.00 | 0.00 | 44 | 1013.4 |
| 20260504070214 | 7 | 265 | 9.7 | 16.1 | 0.00 | 0.00 | 0.00 | 51 | 1013.0 |
| 20260504060210 | 5 | 256 | 8.0 | 8.0 | 0.00 | 0.00 | 0.00 | 60 | 1013.1 |
| 20260504050708 | 6 | 265 | 1.6 | 9.7 | 0.00 | 0.00 | 0.00 | 57 | 1013.0 |
| 20260504050211 | 6 | 248 | 3.2 | 4.8 | 0.00 | 0.00 | 0.00 | 57 | 1012.9 |
| 20260504045710 | 6 | 203 | 4.8 | 4.8 | 0.00 | 0.00 | 0.00 | 56 | 1012.8 |
| 20260504045209 | 6 | 201 | 1.6 | 3.2 | 0.00 | 0.00 | 0.00 | 56 | 1012.9 |
| 20260504044711 | 6 | 201 | 1.6 | 4.8 | 0.00 | 0.00 | 0.00 | 56 | 1012.9 |
| 20260504044209 | 6 | 201 | 3.2 | 4.8 | 0.00 | 0.00 | 0.00 | 56 | 1013.0 |
| 20260504043710 | 6 | 201 | 1.6 | 4.8 | 0.00 | 0.00 | 0.00 | 56 | 1012.8 |
| 20260504043210 | 6 | 201 | 3.2 | 4.8 | 0.00 | 0.00 | 0.00 | 55 | 1012.9 |
| 20260504042710 | 7 | 200 | 0.0 | 4.8 | 0.00 | 0.00 | 0.00 | 55 | 1012.8 |
| 20260504042210 | 7 | 200 | 3.2 | 4.8 | 0.00 | 0.00 | 0.00 | 55 | 1012.8 |
| 20260504041711 | 7 | 200 | 0.0 | 4.8 | 0.00 | 0.00 | 0.00 | 54 | 1012.8 |
| 20260504041209 | 7 | 200 | 4.8 | 4.8 | 0.00 | 0.00 | 0.00 | 54 | 1012.7 |
| 20260504040709 | 7 | 190 | 1.6 | 3.2 | 0.00 | 0.00 | 0.00 | 54 | 1012.7 |
| 20260504040214 | 7 | 190 | 1.6 | 4.8 | 0.00 | 0.00 | 0.00 | 53 | 1012.7 |
| 20260504035710 | 7 | 190 | 3.2 | 6.4 | 0.00 | 0.00 | 0.00 | 53 | 1012.7 |
| 20260504035209 | 7 | 186 | 1.6 | 8.0 | 0.00 | 0.00 | 0.00 | 52 | 1012.6 |
| 20260504034711 | 7 | 185 | 3.2 | 8.0 | 0.00 | 0.00 | 0.00 | 51 | 1012.7 |
| 20260504033709 | 7 | 245 | 3.2 | 6.4 | 0.00 | 0.00 | 0.00 | 50 | 1012.6 |
| 20260504033210 | 7 | 243 | 3.2 | 6.4 | 0.00 | 0.00 | 0.00 | 50 | 1012.7 |
| 20260504032710 | 7 | 243 | 3.2 | 8.0 | 0.00 | 0.00 | 0.00 | 50 | 1012.6 |
| 20260504032209 | 8 | 242 | 3.2 | 11.3 | 0.00 | 0.00 | 0.00 | 50 | 1012.5 |
| 20260504031710 | 8 | 252 | 4.8 | 11.3 | 0.00 | 0.00 | 0.00 | 50 | 1012.6 |
| 20260504031210 | 8 | 261 | 4.8 | 9.7 | 0.00 | 0.00 | 0.00 | 50 | 1012.6 |
| 20260504030709 | 8 | 254 | 4.8 | 11.3 | 0.00 | 0.00 | 0.00 | 51 | 1012.6 |
| 20260504025709 | 8 | 259 | 4.8 | 9.7 | 0.00 | 0.00 | 0.00 | 51 | 1012.6 |
| 20260504025209 | 7 | 253 | 6.4 | 12.9 | 0.00 | 0.00 | 0.00 | 50 | 1012.7 |
| 20260504024709 | 7 | 240 | 12.9 | 12.9 | 0.00 | 0.00 | 0.00 | 47 | 1012.6 |
| 20260504024208 | 7 | 248 | 4.8 | 11.3 | 0.00 | 0.00 | 0.00 | 45 | 1012.7 |
| 20260504023709 | 8 | 278 | 3.2 | 6.4 | 0.00 | 0.00 | 0.00 | 44 | 1012.6 |
| 20260504023209 | 8 | 278 | 3.2 | 6.4 | 0.00 | 0.00 | 0.00 | 44 | 1012.7 |
| 20260504022708 | 8 | 279 | 3.2 | 6.4 | 0.00 | 0.00 | 0.00 | 44 | 1012.7 |
| 20260504022208 | 8 | 279 | 3.2 | 6.4 | 0.00 | 0.00 | 0.00 | 44 | 1012.6 |
| 20260504021709 | 8 | 279 | 3.2 | 4.8 | 0.00 | 0.00 | 0.00 | 44 | 1012.6 |
| 20260504021209 | 8 | 279 | 3.2 | 4.8 | 0.00 | 0.00 | 0.00 | 45 | 1012.6 |
| 20260504020709 | 8 | 279 | 1.6 | 4.8 | 0.00 | 0.00 | 0.00 | 45 | 1012.5 |
| 20260504020212 | 8 | 279 | 1.6 | 4.8 | 0.00 | 0.00 | 0.00 | 45 | 1012.6 |
| 20260504015710 | 8 | 279 | 1.6 | 4.8 | 0.00 | 0.00 | 0.00 | 45 | 1012.5 |
| 20260504015210 | 8 | 279 | 1.6 | 4.8 | 0.00 | 0.00 | 0.00 | 45 | 1012.5 |
| 20260504014709 | 8 | 279 | 1.6 | 3.2 | 0.00 | 0.00 | 0.00 | 44 | 1012.5 |
| 20260504014209 | 8 | 279 | 1.6 | 4.8 | 0.00 | 0.00 | 0.00 | 43 | 1012.5 |
| 20260504013709 | 8 | 279 | 3.2 | 4.8 | 0.00 | 0.00 | 0.00 | 43 | 1012.5 |
| 20260504013209 | 8 | 279 | 1.6 | 4.8 | 0.00 | 0.00 | 0.00 | 43 | 1012.3 |
| 20260504012709 | 8 | 279 | 0.0 | 0.0 | 0.00 | 0.00 | 0.00 | 42 | 1012.3 |
| 20260504011710 | 9 | 279 | 0.0 | 1.6 | 0.00 | 0.00 | 0.00 | 41 | 1012.3 |
| 20260504011210 | 9 | 279 | 0.0 | 6.4 | 0.00 | 0.00 | 0.00 | 41 | 1012.2 |
| 20260504010212 | 10 | 279 | 1.6 | 6.4 | 0.00 | 0.00 | 0.00 | 39 | 1012.1 |
| 20260504005210 | 10 | 280 | 1.6 | 4.8 | 0.00 | 0.00 | 0.00 | 38 | 1011.9 |
| 20260504004710 | 10 | 280 | 1.6 | 8.0 | 0.00 | 0.00 | 0.00 | 37 | 1011.9 |
| 20260504004210 | 10 | 280 | 3.2 | 9.7 | 0.00 | 0.00 | 0.00 | 36 | 1011.8 |
| 20260504003709 | 11 | 281 | 3.2 | 8.0 | 0.00 | 0.00 | 0.00 | 35 | 1011.8 |
| 20260504003209 | 11 | 281 | 3.2 | 8.0 | 0.00 | 0.00 | 0.00 | 33 | 1011.7 |
| 20260504002710 | 11 | 286 | 3.2 | 8.0 | 0.00 | 0.00 | 0.00 | 31 | 1011.6 |
| 20260504002210 | 12 | 286 | 3.2 | 8.0 | 0.00 | 0.00 | 0.00 | 29 | 1011.5 |
| 20260504001710 | 12 | 282 | 6.4 | 9.7 | 0.00 | 0.00 | 0.00 | 28 | 1011.5 |
| 20260504001210 | 12 | 264 | 4.8 | 11.3 | 0.00 | 0.00 | 0.00 | 26 | 1011.5 |
| 20260504000709 | 12 | 292 | 3.2 | 11.3 | 0.00 | 0.00 | 0.00 | 26 | 1011.3 |
| 20260504000211 | 12 | 299 | 3.2 | 11.3 | 0.00 | 0.00 | 0.00 | 25 | 1011.4 |
| 20260503235709 | 13 | 292 | 3.2 | 12.9 | 0.00 | 0.00 | 0.00 | 24 | 1011.3 |
| 20260503234709 | 13 | 271 | 9.7 | 16.1 | 0.00 | 0.00 | 0.00 | 23 | 1011.1 |
| 20260503234208 | 13 | 313 | 6.4 | 16.1 | 0.00 | 0.00 | 0.00 | 22 | 1011.0 |
| 20260503233209 | 13 | 280 | 4.8 | 19.3 | 0.00 | 0.00 | 0.00 | 21 | 1010.7 |
| 20260503232709 | 13 | 297 | 4.8 | 12.9 | 0.00 | 0.00 | 0.00 | 19 | 1010.7 |
| 20260503232209 | 14 | 308 | 3.2 | 14.5 | 0.00 | 0.00 | 0.00 | 20 | 1010.6 |
| 20260503231210 | 14 | 273 | 9.7 | 20.9 | 0.00 | 0.00 | 0.00 | 19 | 1010.5 |
| 20260503230714 | 14 | 296 | 14.5 | 20.9 | 0.00 | 0.00 | 0.00 | 19 | 1010.5 |
| 20260503230211 | 14 | 256 | 3.2 | 16.1 | 0.00 | 0.00 | 0.00 | 19 | 1010.4 |
| 20260503225710 | 14 | 341 | 3.2 | 16.1 | 0.00 | 0.00 | 0.00 | 18 | 1010.4 |
| 20260503225209 | 14 | 280 | 11.3 | 20.9 | 0.00 | 0.00 | 0.00 | 19 | 1010.4 |
| 20260503224710 | 14 | 278 | 4.8 | 20.9 | 0.00 | 0.00 | 0.00 | 18 | 1010.4 |
| 20260503224209 | 14 | 257 | 11.3 | 19.3 | 0.00 | 0.00 | 0.00 | 18 | 1010.4 |
| 20260503223709 | 14 | 290 | 8.0 | 27.4 | 0.00 | 0.00 | 0.00 | 17 | 1010.4 |
| 20260503223210 | 14 | 337 | 14.5 | 33.8 | 0.00 | 0.00 | 0.00 | 18 | 1010.3 |
| 20260503222710 | 15 | 313 | 9.7 | 33.8 | 0.00 | 0.00 | 0.00 | 16 | 1010.3 |
| 20260503222209 | 15 | 313 | 6.4 | 29.0 | 0.00 | 0.00 | 0.00 | 15 | 1010.3 |
| 20260503221711 | 15 | 312 | 17.7 | 29.0 | 0.00 | 0.00 | 0.00 | 17 | 1010.3 |
| 20260503221209 | 15 | 306 | 6.4 | 27.4 | 0.00 | 0.00 | 0.00 | 16 | 1010.3 |
| 20260503220709 | 15 | 297 | 16.1 | 27.4 | 0.00 | 0.00 | 0.00 | 16 | 1010.3 |
| 20260503215709 | 15 | 304 | 19.3 | 32.2 | 0.00 | 0.00 | 0.00 | 17 | 1010.4 |
| 20260503215209 | 15 | 292 | 17.7 | 33.8 | 0.00 | 0.00 | 0.00 | 16 | 1010.4 |
| 20260503214711 | 15 | 305 | 22.5 | 33.8 | 0.00 | 0.00 | 0.00 | 17 | 1010.3 |
| 20260503214210 | 15 | 270 | 11.3 | 29.0 | 0.00 | 0.00 | 0.00 | 18 | 1010.3 |
| 20260503213210 | 15 | 300 | 20.9 | 40.2 | 0.00 | 0.00 | 0.00 | 17 | 1010.2 |
| 20260503212709 | 15 | 21 | 4.8 | 33.8 | 0.00 | 0.00 | 0.00 | 19 | 1010.1 |
| 20260503212209 | 15 | 281 | 4.8 | 32.2 | 0.00 | 0.00 | 0.00 | 17 | 1010.2 |
| 20260503211710 | 15 | 318 | 6.4 | 32.2 | 0.00 | 0.00 | 0.00 | 19 | 1010.1 |
| 20260503210209 | 15 | 294 | 40.2 | 40.2 | 0.00 | 0.00 | 0.00 | 20 | 1010.1 |
| 20260503205708 | 15 | 304 | 25.7 | 41.8 | 0.00 | 0.00 | 0.00 | 19 | 1010.0 |
| 20260503205208 | 15 | 289 | 11.3 | 24.1 | 0.00 | 0.00 | 0.00 | 18 | 1010.1 |
| 20260503204709 | 15 | 313 | 9.7 | 29.0 | 0.00 | 0.00 | 0.00 | 21 | 1010.1 |
| 20260503203708 | 15 | 338 | 19.3 | 35.4 | 0.00 | 0.00 | 0.00 | 20 | 1010.2 |
| 20260503203209 | 14 | 259 | 27.4 | 40.2 | 0.00 | 0.00 | 0.00 | 20 | 1010.2 |
| 20260503202708 | 14 | 262 | 9.7 | 54.7 | 0.00 | 0.00 | 0.00 | 19 | 1010.1 |
| 20260503202209 | 15 | 281 | 14.5 | 54.7 | 0.00 | 0.00 | 0.00 | 19 | 1010.1 |
| 20260503201708 | 15 | 282 | 20.9 | 41.8 | 0.00 | 0.00 | 0.00 | 23 | 1010.2 |
| 20260503201208 | 14 | 292 | 11.3 | 41.8 | 0.00 | 0.00 | 0.00 | 21 | 1010.2 |
| 20260503200709 | 14 | 355 | 9.7 | 41.8 | 0.00 | 0.00 | 0.00 | 22 | 1010.2 |
| 20260503195708 | 14 | 254 | 14.5 | 38.6 | 0.00 | 0.00 | 0.00 | 22 | 1010.2 |
| 20260503195209 | 13 | 288 | 22.5 | 41.8 | 0.00 | 0.00 | 0.00 | 22 | 1010.3 |
| 20260503194708 | 13 | 294 | 25.7 | 43.5 | 0.00 | 0.00 | 0.00 | 24 | 1010.4 |
| 20260503193708 | 13 | 323 | 17.7 | 27.4 | 0.00 | 0.00 | 0.00 | 23 | 1010.4 |
| 20260503193208 | 13 | 282 | 9.7 | 29.0 | 0.00 | 0.00 | 0.00 | 22 | 1010.5 |
| 20260503192709 | 13 | 355 | 14.5 | 29.0 | 0.00 | 0.00 | 0.00 | 25 | 1010.6 |
| 20260503192209 | 13 | 336 | 19.3 | 27.4 | 0.00 | 0.00 | 0.00 | 23 | 1010.6 |
| 20260503191709 | 13 | 9 | 20.9 | 32.2 | 0.00 | 0.00 | 0.00 | 26 | 1010.6 |
| 20260503191208 | 13 | 331 | 17.7 | 32.2 | 0.00 | 0.00 | 0.00 | 25 | 1010.8 |
| 20260503190708 | 13 | 302 | 8.0 | 25.7 | 0.00 | 0.00 | 0.00 | 26 | 1010.8 |
| 20260503190208 | 13 | 336 | 3.2 | 27.4 | 0.00 | 0.00 | 0.00 | 25 | 1010.8 |
| 20260503185708 | 13 | 302 | 20.9 | 27.4 | 0.00 | 0.00 | 0.00 | 24 | 1010.8 |
| 20260503185208 | 13 | 270 | 4.8 | 27.4 | 0.00 | 0.00 | 0.00 | 25 | 1011.0 |
| 20260503184708 | 13 | 311 | 9.7 | 27.4 | 0.00 | 0.00 | 0.00 | 23 | 1010.9 |
| 20260503184208 | 12 | 338 | 3.2 | 29.0 | 0.00 | 0.00 | 0.00 | 28 | 1011.0 |
| 20260503183709 | 12 | 310 | 4.8 | 30.6 | 0.00 | 0.00 | 0.00 | 26 | 1011.1 |
| 20260503183209 | 12 | 306 | 16.1 | 30.6 | 0.00 | 0.00 | 0.00 | 25 | 1011.1 |
| 20260503182709 | 12 | 304 | 6.4 | 30.6 | 0.00 | 0.00 | 0.00 | 25 | 1011.0 |
| 20260503182209 | 12 | 350 | 12.9 | 30.6 | 0.00 | 0.00 | 0.00 | 27 | 1011.0 |
| 20260503181209 | 12 | 301 | 8.0 | 33.8 | 0.00 | 0.00 | 0.00 | 27 | 1011.0 |
| 20260503180708 | 12 | 332 | 32.2 | 33.8 | 0.00 | 0.00 | 0.00 | 25 | 1011.1 |
| 20260503180211 | 12 | 344 | 16.1 | 33.8 | 0.00 | 0.00 | 0.00 | 26 | 1010.9 |